Date String (YYYY-MM-DD hh:mm:ss) UTC,Instrument flags,Ambient pressure (hPa),Sample flow (lpm),Bypass flow (lpm),Sample temperature (°C),Ambient temperature (°C),ASC tube jacket temperature (°C),LED temperature (°C),Box temperature (°C),Sample RH (%),Span deviation,Mass concentration (μg/m³),Mass concentration (μg/m³),Mass concentration (μg/m³)
DateTimeUTC,F1_M11,P_M11,Q1_M11,Q2_M11,T1_M11,T2_M11,T3_M11,T4_M11,T5_M11,U1_M11,ZSPAN_M11,X2_M11,X0_M11,X1_M11
2022-02-19 04:00:00,,0830.5,5.00,0.00,22.2,21.5,00.0,31.4,23.9,08.8,0000.0,0000.91,0001.59,0000.66
2022-02-19 04:01:00,,0830.5,5.00,0.00,22.2,21.5,00.0,31.4,23.8,08.8,0000.0,0000.91,0001.62,0000.65
2022-02-19 04:02:00,,0830.5,5.00,0.00,22.1,21.4,00.0,31.3,23.8,08.8,0000.0,0000.91,0001.71,0000.64
2022-02-19 04:03:00,,0830.5,4.99,0.00,22.1,21.4,00.0,31.3,23.8,08.8,0000.0,0000.90,0001.68,0000.64
2022-02-19 04:04:00,,0830.5,5.00,0.00,22.1,21.4,00.0,31.3,23.8,08.8,0000.0,0000.85,0001.55,0000.62
2022-02-19 04:05:00,,0830.5,5.02,0.00,22.1,21.3,00.0,31.3,23.7,08.8,0000.0,0000.81,0001.45,0000.60
2022-02-19 04:06:00,,0830.5,5.00,0.00,22.0,21.3,00.0,31.3,23.7,08.8,0000.0,0000.78,0001.39,0000.59
2022-02-19 04:07:00,,0830.6,5.00,0.00,22.0,21.3,00.0,31.2,23.6,08.8,0000.0,0000.78,0001.50,0000.59
2022-02-19 04:08:00,,0830.6,4.99,0.00,22.0,21.2,00.0,31.2,23.6,08.9,0000.0,0000.76,0001.48,0000.57
2022-02-19 04:09:00,,0830.6,5.01,0.00,22.0,21.2,00.0,31.2,23.6,08.9,0000.0,0000.70,0001.39,0000.55
2022-02-19 04:10:00,,0830.5,5.01,0.00,21.9,21.2,00.0,31.2,23.6,08.9,0000.0,0000.66,0001.17,0000.54
2022-02-19 04:11:00,,0830.6,5.00,0.00,21.9,21.2,00.0,31.1,23.6,09.0,0000.0,0000.64,0001.11,0000.53
2022-02-19 04:12:00,,0830.6,5.00,0.00,21.9,21.2,00.0,31.1,23.6,08.9,0000.0,0000.64,0001.19,0000.53
2022-02-19 04:13:00,,0830.6,4.99,0.00,21.9,21.2,00.0,31.1,23.5,09.0,0000.0,0000.64,0001.21,0000.54
2022-02-19 04:14:00,,0830.6,5.00,0.00,21.8,21.1,00.0,31.1,23.5,09.0,0000.0,0000.63,0001.20,0000.53
2022-02-19 04:15:00,,0830.6,5.01,0.00,21.8,21.1,00.0,31.1,23.5,09.0,0000.0,0000.64,0001.21,0000.53
2022-02-19 04:16:00,,0830.6,5.00,0.00,21.8,21.1,00.0,31.0,23.5,09.0,0000.0,0000.64,0001.27,0000.53
2022-02-19 04:17:00,,0830.5,5.01,0.00,21.8,21.1,00.0,31.0,23.5,09.0,0000.0,0000.64,0001.28,0000.53
2022-02-19 04:18:00,,0830.6,5.00,0.00,21.8,21.1,00.0,31.0,23.4,09.0,0000.0,0000.63,0001.19,0000.53
2022-02-19 04:19:00,,0830.6,5.00,0.00,21.8,21.0,00.0,31.0,23.4,09.0,0000.0,0000.64,0001.16,0000.54
2022-02-19 04:20:00,,0830.7,5.00,0.00,21.7,21.0,00.0,31.0,23.3,09.0,0000.0,0000.63,0001.16,0000.53
2022-02-19 04:21:00,,0830.7,5.00,0.00,21.7,21.0,00.0,30.9,23.3,09.0,0000.0,0000.64,0001.18,0000.52
2022-02-19 04:22:00,,0830.6,5.00,0.00,21.7,21.0,00.0,30.9,23.3,09.0,0000.0,0000.62,0001.17,0000.50
2022-02-19 04:23:00,,0830.7,5.00,0.00,21.7,21.0,00.0,30.9,23.3,09.1,0000.0,0000.61,0001.12,0000.49
2022-02-19 04:24:00,,0830.7,5.00,0.00,21.7,21.0,00.0,30.9,23.3,09.0,0000.0,0000.60,0001.03,0000.48
2022-02-19 04:25:00,,0830.7,4.99,0.00,21.7,21.0,00.0,30.9,23.3,09.0,0000.0,0000.61,0001.08,0000.48
2022-02-19 04:26:00,,0830.7,5.00,0.00,21.6,21.0,00.0,30.8,23.3,09.0,0000.0,0000.64,0001.14,0000.48
2022-02-19 04:27:00,,0830.7,5.01,0.00,21.6,20.9,00.0,30.8,23.3,08.9,0000.0,0000.65,0001.14,0000.48
2022-02-19 04:28:00,,0830.7,5.01,0.00,21.6,20.9,00.0,30.8,23.3,09.0,0000.0,0000.63,0001.08,0000.47
2022-02-19 04:29:00,,0830.7,5.01,0.00,21.6,20.9,00.0,30.8,23.2,09.0,0000.0,0000.63,0001.13,0000.45
2022-02-19 04:30:00,,0830.6,5.00,0.00,21.6,20.9,00.0,30.8,23.2,09.0,0000.0,0000.61,0001.10,0000.43
2022-02-19 04:31:00,,0830.7,4.99,0.00,21.6,20.9,00.0,30.8,23.2,09.1,0000.0,0000.61,0001.12,0000.43
2022-02-19 04:32:00,,0830.6,4.99,0.00,21.6,20.9,00.0,30.7,23.2,09.1,0000.0,0000.62,0001.15,0000.42
2022-02-19 04:33:00,,0830.6,5.01,0.00,21.5,20.9,00.0,30.7,23.2,09.1,0000.0,0000.62,0001.19,0000.42
2022-02-19 04:34:00,,0830.6,4.99,0.00,21.5,20.9,00.0,30.7,23.2,09.1,0000.0,0000.64,0001.33,0000.41
2022-02-19 04:35:00,,0830.5,5.00,0.00,21.6,21.0,00.0,30.7,23.3,09.1,0000.0,0000.63,0001.22,0000.41
2022-02-19 04:36:00,,0830.6,5.01,0.00,21.6,21.0,00.0,30.7,23.3,09.0,0000.0,0000.61,0001.15,0000.40
2022-02-19 04:37:00,,0830.6,5.00,0.00,21.6,21.0,00.0,30.7,23.4,09.1,0000.0,0000.60,0001.12,0000.39
2022-02-19 04:38:00,,0830.6,5.00,0.00,21.6,21.1,00.0,30.7,23.4,09.1,0000.0,0000.59,0001.11,0000.39
2022-02-19 04:39:00,,0830.5,4.99,0.00,21.7,21.1,00.0,30.7,23.4,09.0,0000.0,0000.60,0001.15,0000.39
2022-02-19 04:40:00,,0830.5,5.00,0.00,21.7,21.2,00.0,30.7,23.4,09.0,0000.0,0000.58,0001.10,0000.39
2022-02-19 04:41:00,,0830.6,5.01,0.00,21.7,21.2,00.0,30.7,23.4,09.0,0000.0,0000.58,0001.09,0000.39
2022-02-19 04:42:00,,0830.6,4.99,0.00,21.7,21.2,00.0,30.7,23.5,09.0,0000.0,0000.59,0001.09,0000.40
2022-02-19 04:43:00,,0830.5,5.00,0.00,21.8,21.3,00.0,30.7,23.5,09.0,0000.0,0000.57,0001.05,0000.40
2022-02-19 04:44:00,,0830.5,5.01,0.00,21.8,21.3,00.0,30.7,23.6,09.0,0000.0,0000.56,0001.02,0000.40
2022-02-19 04:45:00,,0830.6,5.00,0.00,21.8,21.3,00.0,30.7,23.6,09.0,0000.0,0000.54,0000.87,0000.40
2022-02-19 04:46:00,,0830.5,5.00,0.00,21.8,21.4,00.0,30.8,23.6,09.0,0000.0,0000.54,0000.85,0000.40
2022-02-19 04:47:00,,0830.5,5.00,0.00,21.9,21.4,00.0,30.8,23.6,09.0,0000.0,0000.54,0000.85,0000.40
2022-02-19 04:48:00,,0830.5,4.99,0.00,21.9,21.4,00.0,30.8,23.6,09.0,0000.0,0000.51,0000.80,0000.39
2022-02-19 04:49:00,,0830.6,5.00,0.00,21.9,21.4,00.0,30.8,23.6,09.0,0000.0,0000.51,0000.76,0000.39
2022-02-19 04:50:00,,0830.6,5.00,0.00,21.9,21.4,00.0,30.8,23.7,08.9,0000.0,0000.53,0000.81,0000.39
2022-02-19 04:51:00,,0830.6,5.00,0.00,21.9,21.4,00.0,30.8,23.7,08.9,0000.0,0000.56,0000.87,0000.40
2022-02-19 04:52:00,,0830.6,5.00,0.00,21.9,21.4,00.0,30.9,23.7,09.0,0000.0,0000.58,0000.91,0000.41
2022-02-19 04:53:00,,0830.6,5.00,0.00,22.0,21.4,00.0,30.9,23.8,09.0,0000.0,0000.57,0000.89,0000.41
2022-02-19 04:54:00,,0830.6,5.02,0.00,22.0,21.4,00.0,30.9,23.7,08.9,0000.0,0000.60,0000.99,0000.42
2022-02-19 04:55:00,,0830.6,5.00,0.00,22.0,21.5,00.0,30.9,23.8,09.0,0000.0,0000.62,0001.09,0000.43
2022-02-19 04:56:00,,0830.6,5.00,0.00,22.0,21.5,00.0,30.9,23.8,09.0,0000.0,0000.70,0001.32,0000.46
2022-02-19 04:57:00,,0830.7,5.00,0.00,22.0,21.4,00.0,30.9,23.8,09.1,0000.0,0000.75,0001.39,0000.49
2022-02-19 04:58:00,,0830.6,5.00,0.00,22.0,21.4,00.0,30.9,23.8,09.1,0000.0,0000.79,0001.45,0000.53
2022-02-19 04:59:00,,0830.7,5.00,0.00,22.0,21.4,00.0,30.9,23.8,09.1,0000.0,0000.84,0001.51,0000.57
